Hourly Weather Kivernikovo

Today, 27 July, Tuesday

Time Temperature Precipitation Wind Pressure Humidity
00:00 +18°C° 0 mm 1 mps 753 mmHg 72%
01:00 +16°C° 0 mm 1 mps 753 mmHg 74%
02:00 +16°C° 0 mm 1 mps 753 mmHg 75%
03:00 +15°C° 0 mm 0 mps 753 mmHg 74%
04:00 +16°C° 0 mm 0 mps 753 mmHg 73%
05:00 +16°C° 0 mm 0 mps 753 mmHg 72%
06:00 +19°C° 0 mm 0 mps 753 mmHg 64%
07:00 +21°C° 0 mm 0 mps 753 mmHg 56%
08:00 +25°C° 0 mm 1 mps 752 mmHg 48%
09:00 +27°C° 0 mm 1 mps 752 mmHg 43%
10:00 +28°C° 0 mm 1 mps 752 mmHg 39%
11:00 +29°C° 0 mm 1 mps 752 mmHg 34%
12:00 +30°C° 0 mm 1 mps 751 mmHg 33%
13:00 +30°C° 0 mm 1 mps 751 mmHg 33%
14:00 +31°C° 0 mm 1 mps 751 mmHg 32%
15:00 +30°C° 0 mm 1 mps 750 mmHg 36%
16:00 +29°C° 0 mm 1 mps 750 mmHg 40%
17:00 +28°C° 0 mm 2 mps 750 mmHg 44%
18:00 +27°C° 0 mm 1 mps 750 mmHg 50%
19:00 +25°C° 0 mm 1 mps 750 mmHg 57%
20:00 +23°C° 0 mm 1 mps 749 mmHg 63%
21:00 +22°C° 0 mm 1 mps 749 mmHg 66%
22:00 +22°C° 0 mm 1 mps 749 mmHg 70%
23:00 +21°C° 0 mm 1 mps 749 mmHg 73%

Tomorrow, 28 July, Wednesday

Time Temperature Precipitation Wind Pressure Humidity
00:00 +20°C° 0 mm 1 mps 749 mmHg 76%
01:00 +20°C° 0 mm 1 mps 749 mmHg 79%
02:00 +19°C° 0 mm 1 mps 749 mmHg 82%
03:00 +19°C° 0 mm 1 mps 748 mmHg 81%
04:00 +20°C° 0 mm 1 mps 748 mmHg 80%
05:00 +20°C° 0 mm 1 mps 748 mmHg 79%
06:00 +21°C° 0 mm 2 mps 748 mmHg 72%
07:00 +24°C° 0 mm 2 mps 747 mmHg 65%
08:00 +26°C° 0 mm 2 mps 747 mmHg 57%
09:00 +27°C° 0 mm 3 mps 747 mmHg 53%
10:00 +28°C° 0 mm 3 mps 746 mmHg 49%
11:00 +29°C° 0 mm 3 mps 746 mmHg 45%
12:00 +29°C° 0 mm 4 mps 746 mmHg 45%
13:00 +29°C° 0 mm 4 mps 745 mmHg 44%
14:00 +30°C° 0 mm 4 mps 744 mmHg 44%
15:00 +28°C° 0 mm 4 mps 744 mmHg 53%
16:00 +26°C° 0 mm 5 mps 744 mmHg 62%
17:00 +23°C° 0 mm 5 mps 744 mmHg 71%
18:00 +22°C° 0 mm 4 mps 744 mmHg 76%
19:00 +21°C° 0 mm 3 mps 743 mmHg 81%
20:00 +19°C° 0 mm 2 mps 743 mmHg 86%
21:00 +19°C° 0 mm 2 mps 743 mmHg 89%
22:00 +19°C° 0 mm 2 mps 743 mmHg 91%
23:00 +18°C° 0 mm 2 mps 743 mmHg 94%

Day after tomorrow, 29 July, Thursday

Time Temperature Precipitation Wind Pressure Humidity
00:00 +18°C° 0 mm 2 mps 742 mmHg 95%
01:00 +18°C° 0 mm 2 mps 742 mmHg 96%
02:00 +18°C° 0 mm 2 mps 741 mmHg 97%
03:00 +18°C° 0 mm 2 mps 741 mmHg 96%
04:00 +18°C° 0 mm 2 mps 741 mmHg 96%
05:00 +18°C° 0 mm 2 mps 741 mmHg 96%
06:00 +20°C° 0 mm 3 mps 741 mmHg 88%
07:00 +21°C° 0 mm 3 mps 741 mmHg 79%
08:00 +24°C° 0 mm 3 mps 741 mmHg 71%
09:00 +25°C° 0 mm 4 mps 741 mmHg 63%
10:00 +27°C° 0 mm 4 mps 741 mmHg 55%
11:00 +28°C° 0 mm 4 mps 741 mmHg 48%
12:00 +28°C° 0 mm 4 mps 741 mmHg 45%
13:00 +29°C° 0 mm 4 mps 741 mmHg 43%
14:00 +29°C° 0 mm 4 mps 741 mmHg 40%
15:00 +28°C° 0 mm 4 mps 741 mmHg 45%
16:00 +27°C° 0 mm 3 mps 741 mmHg 50%
17:00 +26°C° 0 mm 3 mps 741 mmHg 55%
18:00 +25°C° 0 mm 3 mps 741 mmHg 61%
19:00 +24°C° 0 mm 3 mps 741 mmHg 66%
20:00 +21°C° 0 mm 3 mps 741 mmHg 72%
21:00 +20°C° 0.1 mm 2 mps 741 mmHg 79%
22:00 +19°C° 0.1 mm 2 mps 741 mmHg 85%
23:00 +18°C° 0.1 mm 2 mps 741 mmHg 91%

30 July, Friday

Time Temperature Precipitation Wind Pressure Humidity
00:00 +17°C° 0 mm 2 mps 741 mmHg 92%
01:00 +17°C° 0 mm 2 mps 741 mmHg 93%
02:00 +16°C° 0 mm 2 mps 741 mmHg 94%
03:00 +17°C° 0 mm 2 mps 741 mmHg 92%
04:00 +17°C° 0 mm 2 mps 741 mmHg 91%
05:00 +17°C° 0 mm 2 mps 741 mmHg 89%
06:00 +19°C° 0 mm 2 mps 741 mmHg 79%
07:00 +21°C° 0 mm 3 mps 741 mmHg 70%
08:00 +25°C° 0 mm 3 mps 741 mmHg 61%
09:00 +26°C° 0 mm 4 mps 741 mmHg 53%
10:00 +27°C° 0 mm 4 mps 741 mmHg 46%
11:00 +28°C° 0 mm 5 mps 741 mmHg 39%
12:00 +28°C° 0 mm 5 mps 741 mmHg 39%
13:00 +28°C° 0 mm 5 mps 741 mmHg 40%
14:00 +27°C° 0 mm 5 mps 741 mmHg 40%
15:00 +27°C° 0 mm 4 mps 741 mmHg 42%
16:00 +26°C° 0 mm 3 mps 741 mmHg 44%
17:00 +26°C° 0 mm 3 mps 740 mmHg 47%
18:00 +24°C° 0 mm 2 mps 740 mmHg 52%
19:00 +23°C° 0 mm 2 mps 740 mmHg 58%
20:00 +21°C° 0 mm 2 mps 740 mmHg 64%
21:00 +20°C° 0 mm 2 mps 740 mmHg 65%
22:00 +19°C° 0 mm 3 mps 740 mmHg 67%
23:00 +18°C° 0 mm 3 mps 740 mmHg 68%

31 July, Saturday

Time Temperature Precipitation Wind Pressure Humidity
00:00 +18°C° 0 mm 3 mps 740 mmHg 68%
01:00 +18°C° 0 mm 3 mps 740 mmHg 69%
02:00 +18°C° 0 mm 3 mps 740 mmHg 69%
03:00 +18°C° 0 mm 3 mps 740 mmHg 69%
04:00 +18°C° 0 mm 3 mps 740 mmHg 70%
05:00 +18°C° 0 mm 3 mps 740 mmHg 70%
06:00 +20°C° 0 mm 4 mps 740 mmHg 63%
07:00 +21°C° 0 mm 4 mps 740 mmHg 55%
08:00 +23°C° 0 mm 4 mps 740 mmHg 48%
09:00 +25°C° 0 mm 5 mps 740 mmHg 43%
10:00 +26°C° 0 mm 5 mps 740 mmHg 39%
11:00 +28°C° 0 mm 6 mps 740 mmHg 34%
12:00 +28°C° 0 mm 6 mps 740 mmHg 33%
13:00 +29°C° 0 mm 6 mps 740 mmHg 31%
14:00 +29°C° 0 mm 6 mps 740 mmHg 30%
15:00 +29°C° 0 mm 5 mps 740 mmHg 32%
16:00 +28°C° 0 mm 5 mps 740 mmHg 33%
17:00 +28°C° 0 mm 4 mps 740 mmHg 35%
18:00 +26°C° 0 mm 3 mps 740 mmHg 42%
19:00 +22°C° 0 mm 3 mps 740 mmHg 49%
20:00 +20°C° 0 mm 2 mps 740 mmHg 56%
21:00 +19°C° 0 mm 2 mps 741 mmHg 57%
22:00 +18°C° 0 mm 2 mps 741 mmHg 59%
23:00 +18°C° 0 mm 2 mps 741 mmHg 61%

1 August, Sunday

Time Temperature Precipitation Wind Pressure Humidity
00:00 +18°C° 0 mm 1 mps 741 mmHg 63%
01:00 +18°C° 0 mm 1 mps 741 mmHg 64%
02:00 +18°C° 0 mm 1 mps 741 mmHg 66%
03:00 +18°C° 0 mm 1 mps 741 mmHg 68%
04:00 +17°C° 0 mm 2 mps 740 mmHg 70%
05:00 +18°C° 0 mm 2 mps 740 mmHg 72%
06:00 +18°C° 0.3 mm 2 mps 740 mmHg 77%
07:00 +19°C° 0.3 mm 2 mps 740 mmHg 82%
08:00 +20°C° 0.3 mm 3 mps 740 mmHg 87%
09:00 +21°C° 0.2 mm 3 mps 740 mmHg 82%
10:00 +23°C° 0.2 mm 2 mps 740 mmHg 76%
11:00 +24°C° 0.2 mm 2 mps 740 mmHg 71%
12:00 +25°C° 0.4 mm 2 mps 740 mmHg 69%
13:00 +25°C° 0.4 mm 2 mps 740 mmHg 67%
14:00 +26°C° 0.4 mm 2 mps 740 mmHg 65%
15:00 +25°C° 0.4 mm 2 mps 740 mmHg 68%
16:00 +24°C° 0.4 mm 2 mps 740 mmHg 72%
17:00 +23°C° 0.4 mm 2 mps 740 mmHg 75%
18:00 +21°C° 0.1 mm 2 mps 740 mmHg 77%
19:00 +20°C° 0.1 mm 2 mps 740 mmHg 79%
20:00 +19°C° 0.1 mm 2 mps 741 mmHg 81%
21:00 +18°C° 0 mm 2 mps 741 mmHg 82%
22:00 +17°C° 0 mm 2 mps 741 mmHg 83%
23:00 +16°C° 0 mm 2 mps 742 mmHg 84%
Show more